Total_Precipitation_Accumulation
0.12 0.22 0.24 0.24 0.23 0.19 0.15 0.12 0.22 0.26 0.37 0.46 0.49 0.62 0.79 0.96 0.96 0.90 0.74 0.65 0.73 0.73 0.77 0.80 0.81 0.90 0.84 0.84 0.89 1.02 1.20 1.32 1.46 1.47 1.45 1.43 1.49 1.54 1.57 1.66 1.65 1.72 1.78 1.80
0.16 0.19 0.25 0.28 0.26 0.19 0.14 0.12 0.16 0.24 0.38 0.51 0.58 0.68 0.76 0.74 0.68 0.61 0.56 0.46 0.45 0.61 0.70 0.66 0.66 0.70 0.64 0.70 0.83 0.98 1.07 1.18 1.38 1.51 1.54 1.54 1.58 1.67 1.72 1.72 1.72 1.75 1.72 1.76
0.25 0.25 0.25 0.34 0.33 0.24 0.15 0.14 0.20 0.32 0.49 0.65 0.56 0.59 0.66 0.64 0.63 0.59 0.57 0.42 0.36 0.43 0.59 0.58 0.58 0.59 0.69 0.82 0.96 1.07 1.21 1.35 1.52 1.62 1.71 1.73 1.69 1.79 1.76 1.77 1.81 1.78 1.70 1.69
0.32 0.43 0.52 0.37 0.30 0.29 0.29 0.26 0.28 0.40 0.42 0.56 0.57 0.63 0.75 0.74 0.72 0.58 0.51 0.42 0.37 0.38 0.43 0.50 0.56 0.64 0.78 1.05 1.27 1.32 1.46 1.65 1.74 1.85 1.81 1.79 1.78 1.81 1.88 1.96 1.98 1.94 1.88 1.80
0.47 0.61 0.52 0.45 0.32 0.36 0.41 0.54 0.56 0.64 0.61 0.56 0.56 0.67 0.77 0.66 0.59 0.59 0.49 0.45 0.44 0.43 0.50 0.60 0.64 0.68 0.89 1.12 1.37 1.50 1.56 1.69 1.85 1.95 1.99 2.01 2.03 1.98 2.03 2.11 2.07 1.99 1.96 2.00
0.59 0.74 0.73 0.62 0.48 0.47 0.58 1.03 0.86 0.79 0.81 0.69 0.65 0.79 0.87 0.81 0.73 0.67 0.60 0.56 0.55 0.57 0.66 0.81 0.91 0.95 1.08 1.20 1.34 1.52 1.60 1.72 1.90 2.12 2.18 2.21 2.34 2.41 2.33 2.29 2.15 2.16 2.16 2.14
0.74 0.80 0.87 0.74 0.68 0.71 1.11 1.39 1.08 0.91 0.87 0.85 0.96 0.97 0.91 0.81 0.82 0.76 0.64 0.67 0.65 0.68 0.80 1.00 1.14 1.20 1.29 1.43 1.53 1.55 1.64 1.77 1.97 2.16 2.24 2.32 2.47 2.54 2.49 2.44 2.41 2.36 2.28 2.31
0.89 1.08 1.25 0.87 0.84 1.24 1.50 1.26 1.25 1.22 1.13 1.02 1.00 0.95 0.91 0.82 0.80 0.75 0.73 0.78 0.79 0.84 0.99 1.20 1.37 1.34 1.38 1.45 1.49 1.54 1.56 1.68 1.81 1.98 2.03 2.11 2.37 2.45 2.51 2.53 2.48 2.39 2.32 2.20
1.20 1.32 1.22 1.02 1.10 1.27 1.39 1.55 1.46 1.35 1.35 1.16 1.12 1.03 0.94 0.85 0.82 0.80 0.77 0.83 0.86 0.93 1.12 1.36 1.51 1.53 1.60 1.49 1.55 1.59 1.62 1.75 1.89 1.96 2.03 2.14 2.24 2.26 2.33 2.41 2.36 2.25 2.23 2.17
1.37 1.41 1.33 1.19 1.06 1.00 1.13 1.24 1.23 1.22 1.23 1.18 1.15 1.08 0.99 0.88 0.81 0.81 0.82 0.77 0.82 0.91 1.00 1.11 1.30 1.47 1.57 1.63 1.67 1.68 1.70 1.75 1.83 1.94 1.94 1.98 2.11 2.21 2.31 2.42 2.48 2.38 2.27 2.18
1.62 1.53 1.41 1.41 1.30 1.18 1.26 1.32 1.24 1.18 1.15 1.16 1.13 1.07 0.93 0.90 0.88 0.86 0.85 0.80 0.82 0.91 0.92 0.98 1.07 1.20 1.28 1.39 1.51 1.55 1.59 1.64 1.68 1.71 1.79 1.88 1.93 2.01 2.03 2.13 2.14 2.12 2.07 2.05
1.97 1.71 1.55 1.52 1.41 1.29 1.35 1.33 1.40 1.49 1.44 1.21 1.09 1.17 1.09 0.96 0.86 0.86 0.87 0.87 0.88 0.89 0.87 0.90 0.97 1.13 1.24 1.34 1.46 1.58 1.65 1.67 1.60 1.56 1.62 1.67 1.71 1.71 1.71 1.67 1.68 1.64 1.65 1.65
1.63 1.45 1.42 1.40 1.37 1.30 1.30 1.24 1.23 1.35 1.37 1.25 1.19 1.17 1.21 1.11 1.02 0.95 0.88 0.82 0.85 0.90 0.89 0.91 0.95 1.06 1.15 1.24 1.34 1.45 1.55 1.61 1.60 1.57 1.61 1.60 1.60 1.62 1.65 1.60 1.51 1.45 1.43 1.43
1.42 1.37 1.38 1.33 1.26 1.26 1.27 1.20 1.09 1.10 1.17 1.21 1.24 1.27 1.37 1.28 1.16 1.08 1.03 0.94 0.86 0.86 0.86 0.88 0.96 0.98 1.07 1.15 1.22 1.27 1.33 1.42 1.53 1.63 1.66 1.69 1.71 1.75 1.80 1.85 1.78 1.60 1.46 1.38
1.50 1.38 1.29 1.16 1.16 1.21 1.19 1.13 1.05 1.02 1.16 1.32 1.29 1.26 1.31 1.22 1.14 1.08 1.00 0.95 0.91 0.90 0.93 0.94 0.99 1.00 1.07 1.17 1.23 1.25 1.27 1.32 1.34 1.40 1.49 1.56 1.57 1.60 1.68 1.76 1.78 1.66 1.51 1.40
1.59 1.45 1.26 1.12 1.17 1.27 1.29 1.25 1.16 1.05 1.02 1.18 1.28 1.21 1.18 1.11 1.01 1.02 1.04 1.04 1.07 1.07 1.08 1.08 1.12 1.07 1.12 1.20 1.27 1.31 1.27 1.31 1.30 1.27 1.27 1.31 1.35 1.42 1.50 1.59 1.64 1.56 1.45 1.33
1.61 1.55 1.40 1.22 1.15 1.14 1.18 1.22 1.18 1.10 1.00 1.02 1.10 1.15 1.16 1.10 1.00 0.97 1.00 1.04 1.09 1.10 1.10 1.14 1.19 1.20 1.27 1.32 1.35 1.36 1.29 1.26 1.24 1.23 1.24 1.26 1.30 1.36 1.39 1.43 1.48 1.41 1.28 1.13
1.45 1.39 1.29 1.20 1.11 1.08 1.10 1.10 1.09 1.07 1.02 1.00 1.00 1.02 1.06 1.13 1.15 1.10 1.04 1.04 1.05 1.02 0.99 1.00 1.07 1.16 1.30 1.42 1.47 1.43 1.30 1.20 1.13 1.13 1.19 1.24 1.27 1.34 1.37 1.35 1.30 1.22 1.12 0.95
1.31 1.28 1.21 1.13 1.10 1.07 1.07 1.06 1.07 1.05 0.98 0.93 0.98 1.04 1.07 1.12 1.22 1.20 1.12 1.13 1.19 1.21 1.09 1.01 1.09 1.07 1.15 1.37 1.52 1.52 1.37 1.24 1.14 1.10 1.10 1.11 1.13 1.19 1.24 1.20 1.12 1.05 0.99 0.94
1.31 1.33 1.35 1.30 1.20 1.16 1.10 1.04 1.04 1.04 1.01 0.97 0.97 1.01 1.11 1.12 1.21 1.28 1.27 1.21 1.21 1.29 1.27 1.19 1.09 1.00 1.01 1.22 1.52 1.47 1.38 1.27 1.14 1.04 1.05 1.09 1.12 1.16 1.18 1.14 1.06 0.99 0.96 0.93
1.37 1.43 1.41 1.38 1.29 1.20 1.08 1.01 1.05 1.07 1.04 1.06 1.06 1.08 1.16 1.16 1.14 1.24 1.36 1.25 1.14 1.25 1.32 1.29 1.09 0.99 0.98 1.14 1.43 1.42 1.34 1.27 1.15 1.04 1.00 1.02 1.06 1.13 1.14 1.10 1.04 0.95 0.92 0.92
1.55 1.60 1.50 1.34 1.26 1.17 1.06 0.99 0.97 0.99 1.01 1.08 1.11 1.16 1.31 1.32 1.27 1.24 1.20 1.18 1.16 1.27 1.27 1.22 1.12 1.01 0.93 0.95 1.05 1.17 1.14 1.07 1.00 0.92 0.86 0.87 0.94 1.02 1.04 1.03 1.01 0.97 0.96 0.95
1.55 1.51 1.42 1.24 1.17 1.05 0.90 0.88 0.89 0.90 0.95 1.04 1.16 1.31 1.52 1.52 1.43 1.47 1.29 1.04 1.03 1.18 1.16 1.08 1.07 0.99 0.91 0.85 0.90 0.97 0.99 0.98 0.92 0.81 0.73 0.73 0.79 0.86 0.92 0.89 0.88 0.88 0.84 0.79
1.34 1.28 1.20 1.07 1.07 1.03 0.97 0.95 0.93 0.93 0.96 1.01 1.08 1.24 1.49 1.64 1.46 1.23 1.15 1.10 1.06 1.05 1.00 1.01 1.01 0.95 0.90 0.83 0.85 0.92 0.98 1.01 0.95 0.88 0.78 0.77 0.78 0.81 0.86 0.83 0.81 0.79 0.74 0.74
1.31 1.13 1.02 1.04 1.15 1.23 1.17 1.12 1.11 1.14 1.14 1.15 1.13 1.15 1.28 1.51 1.52 1.21 1.01 0.92 0.95 0.94 0.90 0.98 0.99 0.97 0.83 0.74 0.80 0.92 1.00 1.04 1.05 0.99 0.93 0.92 0.88 0.88 0.90 0.89 0.89 0.87 0.85 0.83
1.25 1.14 1.07 1.06 1.12 1.26 1.31 1.34 1.42 1.46 1.48 1.54 1.51 1.38 1.37 1.42 1.33 1.17 0.99 0.85 0.85 0.91 0.87 0.91 0.96 0.96 0.83 0.77 0.80 0.89 0.96 1.02 1.05 1.06 1.03 0.98 0.95 0.96 0.99 0.97 0.96 0.94 0.89 0.84
1.27 1.16 1.12 1.09 1.10 1.23 1.38 1.52 1.65 1.70 1.78 1.92 1.92 1.63 1.51 1.52 1.48 1.35 1.16 1.03 1.04 1.07 1.03 0.97 0.89 0.85 0.87 0.92 0.91 0.85 0.89 0.99 1.01 1.04 1.09 1.02 0.96 0.94 0.94 0.91 0.87 0.85 0.79 0.72